Regional Weather Roundup
Issued by NWS Cleveland, OH

Home | Current Version | Previous Version | Text Only | Print | Product List | Glossary Off
Versions: 1 2 3 4 5 6 7 8 9 10 11 12 13 14 15 16 17 18 19 20 21 22 23 24 25 26 27 28 29 30 31 32 33 34 35 36 37 38 39 40 41 42 43 44 45 46 47 48 49 50

000
ASUS41 KCLE 270912
RWRCLE
OHIO REGIONAL WEATHER ROUNDUP
NATIONAL WEATHER SERVICE WILMINGTON, OH
500 AM EDT FRI MAY 27 2016

NOTE: "FAIR" INDICATES FEW OR NO CLOUDS BELOW 12,000 FEET WITH NO
SIGNIFICANT WEATHER AND/OR OBSTRUCTIONS TO VISIBILITY.

OHZ001>008-015>018-024>027-034-035-043-044-271000-
   NORTHWEST OHIO

CITY           SKY/WX    TMP DP  RH WIND       PRES   REMARKS
DEFIANCE       FAIR      65  60  84 CALM      29.98R
FINDLAY        FAIR      65  59  81 S9        29.99R
TOLEDO EXPRESS FAIR      65  62  90 SW9       29.98R
TOLEDO EXEC    FAIR      66  61  84 SW7       29.99R
LIMA           FAIR      64  61  90 S7        30.00S
$$

OHZ009>014-019>023-028>033-038-089-271000-
   NORTHEAST OHIO

CITY           SKY/WX    TMP DP  RH WIND       PRES   REMARKS
CLE-HOPKINS    MOCLDY    70  64  81 S8        30.00F
CLE-LAKEFRONT  FAIR      71  64  78 S12       29.97S
CUY CO. ARPT   NOT AVBL
LORAIN-ELYRIA  FAIR      65  59  81 SW7       29.99S
ASHTABULA      FAIR      68  65  90 S6        30.01R
AKRON-CANTON   FAIR      66  63  90 S7        30.02S
WOOSTER        FAIR      65  64  97 SW7       30.02S
MANSFIELD      FAIR      64  62  93 S9        30.03R
YOUNGSTOWN     MOCLDY    67  64  90 S6        30.03R
$$

OHZ042-051>053-060>062-070>072-077>081-271000-
  SOUTHWEST OHIO

CITY           SKY/WX    TMP DP  RH WIND       PRES   REMARKS
CINC-COVINGTON FAIR      62  61  96 S3        30.03S
CINC-LUNKEN    FOG       60  60 100 CALM      30.04S VSB 3/4
HAMILTON       FAIR      63  62  97 CALM      30.04R
DAYTON         FAIR      63  62  97 S9        30.03S
WRIGHT-PAT AFB FAIR      64  64 100 S7        30.02S
DAYTON GENERAL FAIR      63  60  90 S7        30.03R
WILMINGTON     FAIR      63  62  97 S7        30.04R
$$

OHZ036-037-039>041-045>050-054>059-063>069-073>076-082>088-271000-
  CENTRAL AND SOUTHEAST OHIO

CITY           SKY/WX    TMP DP  RH WIND       PRES   REMARKS
COLUMBUS       MOCLDY    66  62  87 S5        30.04R
OSU AIRPORT      N/A     65  62  90 S8        30.03
BOLTON FIELD   FAIR      63  62  95 S6        30.04S
RICKENBACK AFB FAIR      64  61  90 S6        30.03S
NEWARK         FAIR      64  61  90 S3        30.04R
MARION         FAIR      65  62  90 S7        30.03R
LANCASTER      FAIR      66  60  81 S3        30.05R
ZANESVILLE     MOCLDY    67  64  90 S3        30.05R
NEW PHILLY     FAIR      67  63  87 SE6       30.04R
$$




USA.gov is the U.S. government's official web portal to all federal, state and local government web resources and services.